TimeEST,TemperatureF,Dew PointF,Humidity,Sea Level PressureIn,VisibilityMPH,Wind Direction,Wind SpeedMPH,Gust SpeedMPH,PrecipitationIn,Events,Conditions,WindDirDegrees,DateUTC
12:55 AM,32.0,28.4,87,29.56,5.0,North,13.8,20.7,0.03,,Overcast,360,2013-02-28 05:55:00
1:15 AM,32.0,30.2,93,29.55,5.0,NNW,15.0,21.9,N/A,,Overcast,340,2013-02-28 06:15:00
1:35 AM,32.0,26.6,80,29.56,5.0,NNW,12.7,20.7,0.01,,Overcast,340,2013-02-28 06:35:00
2:15 AM,32.0,30.2,93,29.54,5.0,North,13.8,-,N/A,,Overcast,360,2013-02-28 07:15:00
2:35 AM,32.0,28.4,87,29.53,10.0,North,12.7,23.0,0.01,,Overcast,360,2013-02-28 07:35:00
2:55 AM,32.0,28.4,87,29.53,10.0,NNW,11.5,-,0.01,,Overcast,340,2013-02-28 07:55:00
3:15 AM,32.0,28.4,87,29.53,10.0,North,11.5,-,N/A,,Overcast,360,2013-02-28 08:15:00
3:55 AM,32.0,28.4,87,29.55,10.0,NW,8.1,16.1,N/A,,Overcast,320,2013-02-28 08:55:00
4:15 AM,32.0,28.4,87,29.55,10.0,WNW,5.8,-,0.01,,Overcast,300,2013-02-28 09:15:00
4:55 AM,32.0,28.4,87,29.56,9.0,NW,6.9,-,0.02,,Overcast,310,2013-02-28 09:55:00
5:35 AM,32.0,26.6,80,29.57,10.0,West,5.8,-,N/A,,Overcast,270,2013-02-28 10:35:00
5:55 AM,32.0,28.4,87,29.58,10.0,West,4.6,-,N/A,,Overcast,260,2013-02-28 10:55:00
6:15 AM,32.0,28.4,87,29.58,10.0,West,5.8,-,0.01,,Overcast,270,2013-02-28 11:15:00
6:35 AM,32.0,28.4,87,29.58,10.0,WNW,4.6,-,0.01,,Overcast,300,2013-02-28 11:35:00
6:55 AM,32.0,26.6,80,29.59,10.0,West,4.6,-,0.01,,Overcast,280,2013-02-28 11:55:00
7:15 AM,32.0,28.4,87,29.59,10.0,West,5.8,-,N/A,,Overcast,280,2013-02-28 12:15:00
7:35 AM,32.0,28.4,87,29.59,10.0,WNW,4.6,-,N/A,,Mostly Cloudy,290,2013-02-28 12:35:00
7:55 AM,33.8,30.2,87,29.59,10.0,West,3.5,-,0.02,,Clear,270,2013-02-28 12:55:00
8:15 AM,33.8,26.6,75,29.58,10.0,Calm,Calm,-,0.01,,Clear,0,2013-02-28 13:15:00
8:35 AM,33.8,32.0,93,29.59,10.0,Calm,Calm,-,0.03,,Clear,0,2013-02-28 13:35:00
8:55 AM,35.6,30.2,81,29.59,10.0,Calm,Calm,-,0.04,,Clear,0,2013-02-28 13:55:00
9:15 AM,35.6,30.2,81,29.60,10.0,SSW,3.5,-,0.01,,Partly Cloudy,210,2013-02-28 14:15:00
9:35 AM,35.6,33.8,93,29.60,10.0,Calm,Calm,-,0.03,,Mostly Cloudy,0,2013-02-28 14:35:00
9:55 AM,37.4,28.4,70,29.60,10.0,Calm,Calm,-,0.04,,Overcast,0,2013-02-28 14:55:00
10:15 AM,37.4,26.6,65,29.61,10.0,SW,3.5,-,0.02,,Overcast,220,2013-02-28 15:15:00
10:35 AM,37.4,30.2,75,29.60,10.0,WSW,3.5,-,0.03,,Overcast,240,2013-02-28 15:35:00
10:55 AM,37.4,32.0,81,29.60,10.0,SSW,5.8,-,0.03,,Overcast,210,2013-02-28 15:55:00
11:15 AM,37.4,33.8,87,29.60,10.0,SSW,4.6,-,N/A,,Overcast,200,2013-02-28 16:15:00
11:35 AM,37.4,32.0,81,29.60,10.0,WSW,9.2,-,N/A,,Overcast,240,2013-02-28 16:35:00
11:55 AM,39.2,30.2,70,29.58,10.0,WNW,6.9,-,N/A,,Overcast,290,2013-02-28 16:55:00
12:15 PM,39.2,30.2,70,29.58,10.0,West,8.1,-,N/A,,Mostly Cloudy,270,2013-02-28 17:15:00
12:35 PM,39.2,30.2,70,29.57,10.0,WSW,10.4,-,N/A,,Overcast,240,2013-02-28 17:35:00
12:55 PM,39.2,30.2,70,29.56,10.0,WSW,6.9,-,N/A,,Overcast,250,2013-02-28 17:55:00
1:15 PM,39.2,30.2,70,29.55,10.0,WNW,10.4,16.1,N/A,,Mostly Cloudy,290,2013-02-28 18:15:00
1:35 PM,41.0,30.2,65,29.55,10.0,West,8.1,-,N/A,,Mostly Cloudy,270,2013-02-28 18:35:00
1:55 PM,41.0,32.0,70,29.53,10.0,WNW,4.6,-,N/A,,Overcast,290,2013-02-28 18:55:00
2:16 PM,41.0,30.2,65,29.53,10.0,NW,8.1,-,N/A,,Scattered Clouds,320,2013-02-28 19:16:00
2:35 PM,41.0,30.2,65,29.53,10.0,NW,5.8,-,N/A,,Partly Cloudy,310,2013-02-28 19:35:00
3:15 PM,39.2,30.2,70,29.53,10.0,NNW,9.2,-,N/A,,Overcast,340,2013-02-28 20:15:00
3:35 PM,39.2,32.0,75,29.54,10.0,NNW,10.4,-,N/A,,Overcast,330,2013-02-28 20:35:00
3:55 PM,39.2,33.8,81,29.54,10.0,NNW,9.2,-,N/A,,Overcast,330,2013-02-28 20:55:00
4:15 PM,37.4,30.2,75,29.54,10.0,North,6.9,-,N/A,,Overcast,360,2013-02-28 21:15:00
4:35 PM,37.4,30.2,75,29.54,10.0,North,8.1,-,N/A,,Overcast,360,2013-02-28 21:35:00
4:55 PM,37.4,32.0,81,29.53,10.0,North,5.8,-,N/A,,Overcast,360,2013-02-28 21:55:00
5:15 PM,37.4,32.0,81,29.53,10.0,North,6.9,-,N/A,,Overcast,360,2013-02-28 22:15:00
5:35 PM,37.4,33.8,87,29.53,10.0,North,10.4,-,N/A,,Overcast,360,2013-02-28 22:35:00
5:55 PM,37.4,35.6,93,29.54,7.0,North,9.2,-,N/A,,Overcast,10,2013-02-28 22:55:00
6:15 PM,37.4,35.6,93,29.55,10.0,North,9.2,-,N/A,,Overcast,360,2013-02-28 23:15:00
6:55 PM,35.6,30.2,81,29.55,10.0,North,11.5,-,N/A,,Overcast,10,2013-02-28 23:55:00
7:15 PM,35.6,32.0,87,29.55,10.0,North,10.4,18.4,N/A,,Overcast,360,2013-03-01 00:15:00
7:35 PM,35.6,35.6,100,29.55,10.0,North,9.2,-,N/A,,Overcast,360,2013-03-01 00:35:00
7:55 PM,35.6,33.8,93,29.55,10.0,North,9.2,-,N/A,,Overcast,360,2013-03-01 00:55:00
8:15 PM,35.6,28.4,75,29.55,10.0,North,10.4,-,N/A,,Overcast,10,2013-03-01 01:15:00
8:35 PM,35.6,24.8,65,29.55,10.0,North,8.1,-,N/A,,Overcast,360,2013-03-01 01:35:00
8:55 PM,33.8,24.8,70,29.55,10.0,North,6.9,-,N/A,,Overcast,360,2013-03-01 01:55:00
9:15 PM,33.8,28.4,81,29.55,10.0,North,8.1,-,N/A,,Overcast,360,2013-03-01 02:15:00
9:35 PM,33.8,30.2,87,29.55,10.0,North,10.4,-,N/A,,Overcast,10,2013-03-01 02:35:00
9:55 PM,33.8,28.4,81,29.55,10.0,North,10.4,-,N/A,,Overcast,360,2013-03-01 02:55:00
10:15 PM,33.8,28.4,81,29.55,10.0,North,8.1,-,N/A,,Overcast,360,2013-03-01 03:15:00
10:35 PM,33.8,30.2,87,29.54,10.0,North,10.4,-,N/A,,Overcast,360,2013-03-01 03:35:00
10:55 PM,33.8,28.4,81,29.54,10.0,North,10.4,-,N/A,,Overcast,360,2013-03-01 03:55:00
11:15 PM,33.8,26.6,75,29.53,10.0,North,8.1,-,N/A,,Overcast,360,2013-03-01 04:15:00
11:35 PM,33.8,28.4,81,29.53,10.0,North,11.5,-,N/A,,Overcast,360,2013-03-01 04:35:00
11:55 PM,33.8,28.4,81,29.52,10.0,North,11.5,16.1,N/A,,Overcast,360,2013-03-01 04:55:00